| time (UTC) | temp C | wind direction | speed KPH | gust KPH | rain 1hr cm | rain 24hr cm | rain mn cm | humidity % | barometer mb |
| 20260505071311 | 17 | 206 | 9.7 | 11.3 | 0.00 | 0.00 | 0.00 | 74 | 1007.1 |
| 20260505070810 | 17 | 208 | 11.3 | 11.3 | 0.00 | 0.00 | 0.00 | 73 | 1006.7 |
| 20260505070306 | 17 | 149 | 17.7 | 17.7 | 0.00 | 0.00 | 0.00 | 73 | 1006.9 |
| 20260505065801 | 17 | 191 | 24.1 | 29.0 | 0.00 | 0.00 | 0.00 | 73 | 1006.7 |
| 20260505065258 | 17 | 188 | 17.7 | 20.9 | 0.00 | 0.00 | 0.00 | 72 | 1006.6 |
| 20260505064755 | 18 | 192 | 24.1 | 27.4 | 0.00 | 0.00 | 0.00 | 72 | 1006.5 |
| 20260505064252 | 18 | 191 | 19.3 | 22.5 | 0.00 | 0.00 | 0.00 | 71 | 1006.4 |
| 20260505063750 | 18 | 169 | 19.3 | 22.5 | 0.00 | 0.00 | 0.00 | 71 | 1006.1 |
| 20260505063246 | 18 | 152 | 16.1 | 17.7 | 0.00 | 0.00 | 0.00 | 71 | 1006.0 |
| 20260505062743 | 18 | 196 | 22.5 | 32.2 | 0.00 | 0.00 | 0.00 | 72 | 1006.1 |
| 20260505062240 | 18 | 184 | 17.7 | 17.7 | 0.00 | 0.00 | 0.00 | 72 | 1006.0 |
| 20260505061737 | 18 | 162 | 16.1 | 16.1 | 0.00 | 0.00 | 0.00 | 72 | 1006.1 |
| 20260505061235 | 18 | 181 | 17.7 | 22.5 | 0.00 | 0.00 | 0.00 | 72 | 1006.1 |
| 20260505060732 | 18 | 151 | 22.5 | 29.0 | 0.00 | 0.00 | 0.00 | 72 | 1006.4 |
| 20260505060229 | 18 | 192 | 25.7 | 32.2 | 0.00 | 0.00 | 0.00 | 72 | 1006.4 |
| 20260505055724 | 18 | 141 | 14.5 | 16.1 | 0.00 | 0.00 | 0.00 | 72 | 1006.6 |
| 20260505055221 | 18 | 171 | 14.5 | 16.1 | 0.00 | 0.00 | 0.00 | 72 | 1006.6 |
| 20260505054718 | 18 | 185 | 17.7 | 17.7 | 0.00 | 0.00 | 0.00 | 72 | 1006.8 |
| 20260505054216 | 18 | 155 | 16.1 | 20.9 | 0.00 | 0.00 | 0.00 | 72 | 1006.9 |
| 20260505053714 | 18 | 170 | 16.1 | 17.7 | 0.00 | 0.00 | 0.00 | 72 | 1006.9 |
| 20260505053210 | 18 | 177 | 16.1 | 22.5 | 0.00 | 0.00 | 0.00 | 72 | 1006.9 |
| 20260505052708 | 18 | 162 | 16.1 | 17.7 | 0.00 | 0.00 | 0.00 | 72 | 1007.1 |
| 20260505052204 | 18 | 98 | 16.1 | 22.5 | 0.00 | 0.00 | 0.00 | 71 | 1007.2 |
| 20260505051701 | 18 | 178 | 20.9 | 22.5 | 0.00 | 0.00 | 0.00 | 71 | 1007.0 |
| 20260505051159 | 18 | 151 | 11.3 | 12.9 | 0.00 | 0.00 | 0.00 | 71 | 1007.4 |
| 20260505050657 | 18 | 141 | 14.5 | 16.1 | 0.00 | 0.00 | 0.00 | 71 | 1007.3 |
| 20260505050155 | 18 | 192 | 16.1 | 22.5 | 0.00 | 0.00 | 0.00 | 71 | 1007.3 |
| 20260505041625 | 18 | 174 | 14.5 | 16.1 | 0.00 | 0.00 | 0.00 | 69 | 1007.8 |
| 20260505041122 | 18 | 164 | 16.1 | 20.9 | 0.00 | 0.00 | 0.00 | 69 | 1007.9 |
| 20260505040619 | 18 | 184 | 16.1 | 20.9 | 0.00 | 0.00 | 0.00 | 69 | 1008.1 |
| 20260505040116 | 18 | 166 | 14.5 | 16.1 | 0.00 | 0.00 | 0.00 | 68 | 1008.1 |
| 20260505035613 | 18 | 187 | 11.3 | 14.5 | 0.00 | 0.00 | 0.00 | 68 | 1008.1 |
| 20260505035109 | 18 | 182 | 16.1 | 20.9 | 0.00 | 0.00 | 0.00 | 67 | 1008.2 |
| 20260505034606 | 19 | 166 | 17.7 | 17.7 | 0.00 | 0.00 | 0.00 | 67 | 1008.3 |
| 20260505034102 | 19 | 179 | 14.5 | 16.1 | 0.00 | 0.00 | 0.00 | 66 | 1008.1 |
| 20260505033559 | 19 | 148 | 12.9 | 17.7 | 0.00 | 0.00 | 0.00 | 66 | 1008.2 |
| 20260505033058 | 19 | 164 | 11.3 | 14.5 | 0.00 | 0.00 | 0.00 | 66 | 1008.4 |
| 20260505032555 | 19 | 184 | 12.9 | 16.1 | 0.00 | 0.00 | 0.00 | 66 | 1008.5 |
| 20260505032051 | 20 | 181 | 14.5 | 16.1 | 0.00 | 0.00 | 0.00 | 65 | 1008.3 |
| 20260505031549 | 20 | 170 | 11.3 | 14.5 | 0.00 | 0.00 | 0.00 | 64 | 1008.2 |
| 20260505031045 | 20 | 171 | 11.3 | 12.9 | 0.00 | 0.00 | 0.00 | 64 | 1008.1 |
| 20260505030542 | 20 | 134 | 19.3 | 32.2 | 0.00 | 0.00 | 0.00 | 63 | 1008.1 |
| 20260505030038 | 20 | 162 | 9.7 | 11.3 | 0.00 | 0.00 | 0.00 | 63 | 1008.1 |
| 20260505025534 | 20 | 176 | 16.1 | 17.7 | 0.00 | 0.00 | 0.00 | 63 | 1008.1 |
| 20260505025033 | 20 | 165 | 16.1 | 22.5 | 0.00 | 0.00 | 0.00 | 63 | 1007.7 |
| 20260505024530 | 20 | 165 | 12.9 | 16.1 | 0.00 | 0.00 | 0.00 | 63 | 1008.0 |
| 20260505024027 | 20 | 191 | 14.5 | 17.7 | 0.00 | 0.00 | 0.00 | 63 | 1008.0 |
| 20260505023524 | 20 | 161 | 17.7 | 24.1 | 0.00 | 0.00 | 0.00 | 62 | 1007.6 |
| 20260505023021 | 20 | 180 | 11.3 | 12.9 | 0.00 | 0.00 | 0.00 | 62 | 1007.7 |
| 20260505022519 | 20 | 137 | 14.5 | 16.1 | 0.00 | 0.00 | 0.00 | 62 | 1007.4 |
| 20260505022016 | 20 | 134 | 8.0 | 12.9 | 0.00 | 0.00 | 0.00 | 61 | 1007.5 |
| 20260505021512 | 20 | 141 | 9.7 | 12.9 | 0.00 | 0.00 | 0.00 | 61 | 1007.5 |
| 20260505021009 | 20 | 124 | 8.0 | 11.3 | 0.00 | 0.00 | 0.00 | 61 | 1007.4 |
| 20260505020503 | 20 | 185 | 16.1 | 20.9 | 0.00 | 0.00 | 0.00 | 61 | 1007.2 |
| 20260505020000 | 20 | 167 | 11.3 | 12.9 | 0.00 | 0.00 | 0.00 | 61 | 1007.2 |
| 20260505015458 | 21 | 138 | 11.3 | 14.5 | 0.00 | 0.00 | 0.00 | 61 | 1007.1 |
| 20260505014954 | 21 | 147 | 14.5 | 17.7 | 0.00 | 0.00 | 0.00 | 61 | 1007.1 |
| 20260505014452 | 21 | 122 | 9.7 | 12.9 | 0.00 | 0.00 | 0.00 | 60 | 1007.0 |
| 20260505013949 | 21 | 161 | 12.9 | 14.5 | 0.00 | 0.00 | 0.00 | 59 | 1007.1 |
| 20260505013446 | 21 | 165 | 8.0 | 9.7 | 0.00 | 0.00 | 0.00 | 60 | 1006.7 |
| 20260505012943 | 21 | 160 | 8.0 | 9.7 | 0.00 | 0.00 | 0.00 | 59 | 1006.8 |
| 20260505012441 | 21 | 136 | 11.3 | 17.7 | 0.00 | 0.00 | 0.00 | 58 | 1006.6 |
| 20260505011938 | 21 | 144 | 11.3 | 16.1 | 0.00 | 0.00 | 0.00 | 57 | 1006.5 |
| 20260505011433 | 22 | 159 | 8.0 | 9.7 | 0.00 | 0.00 | 0.00 | 57 | 1006.7 |
| 20260505010930 | 22 | 165 | 12.9 | 14.5 | 0.00 | 0.00 | 0.00 | 56 | 1007.0 |
| 20260505010426 | 22 | 169 | 9.7 | 11.3 | 0.00 | 0.00 | 0.00 | 56 | 1006.7 |
| 20260505005922 | 22 | 141 | 14.5 | 16.1 | 0.00 | 0.00 | 0.00 | 56 | 1006.9 |
| 20260505005419 | 22 | 179 | 11.3 | 14.5 | 0.00 | 0.00 | 0.00 | 55 | 1006.6 |
| 20260505004917 | 22 | 156 | 8.0 | 12.9 | 0.00 | 0.00 | 0.00 | 55 | 1006.7 |
| 20260505004413 | 22 | 171 | 14.5 | 17.7 | 0.00 | 0.00 | 0.00 | 54 | 1006.8 |
| 20260505003910 | 23 | 131 | 11.3 | 14.5 | 0.00 | 0.00 | 0.00 | 54 | 1006.8 |
| 20260505003407 | 23 | 179 | 16.1 | 17.7 | 0.00 | 0.00 | 0.00 | 54 | 1006.5 |
| 20260505002904 | 23 | 165 | 6.4 | 9.7 | 0.00 | 0.00 | 0.00 | 53 | 1006.6 |
| 20260505002400 | 23 | 187 | 20.9 | 32.2 | 0.00 | 0.00 | 0.00 | 52 | 1006.4 |
| 20260505001859 | 23 | 153 | 8.0 | 9.7 | 0.00 | 0.00 | 0.00 | 51 | 1006.2 |
| 20260505001355 | 23 | 213 | 11.3 | 12.9 | 0.00 | 0.00 | 0.00 | 50 | 1006.4 |
| 20260505000853 | 23 | 126 | 14.5 | 16.1 | 0.00 | 0.00 | 0.00 | 50 | 1006.4 |
| 20260505000351 | 24 | 149 | 17.7 | 22.5 | 0.00 | 0.00 | 0.00 | 49 | 1006.5 |
| 20260504235846 | 24 | 173 | 17.7 | 24.1 | 0.00 | 0.00 | 0.00 | 49 | 1006.5 |
| 20260504235344 | 24 | 184 | 11.3 | 12.9 | 0.00 | 0.00 | 0.00 | 50 | 1006.4 |
| 20260504234840 | 24 | 132 | 14.5 | 16.1 | 0.00 | 0.00 | 0.00 | 49 | 1006.4 |
| 20260504234338 | 24 | 165 | 11.3 | 14.5 | 0.00 | 0.00 | 0.00 | 48 | 1006.2 |
| 20260504233835 | 25 | 163 | 16.1 | 22.5 | 0.00 | 0.00 | 0.00 | 48 | 1006.1 |
| 20260504233330 | 25 | 160 | 19.3 | 25.7 | 0.00 | 0.00 | 0.00 | 48 | 1006.1 |
| 20260504232827 | 25 | 157 | 8.0 | 11.3 | 0.00 | 0.00 | 0.00 | 49 | 1006.2 |
| 20260504232324 | 25 | 179 | 20.9 | 27.4 | 0.00 | 0.00 | 0.00 | 47 | 1006.2 |
| 20260504231821 | 25 | 118 | 12.9 | 16.1 | 0.00 | 0.00 | 0.00 | 48 | 1006.2 |
| 20260504231318 | 25 | 148 | 14.5 | 16.1 | 0.00 | 0.00 | 0.00 | 49 | 1006.5 |
| 20260504230813 | 25 | 187 | 16.1 | 17.7 | 0.00 | 0.00 | 0.00 | 47 | 1006.2 |
| 20260504230312 | 25 | 160 | 17.7 | 25.7 | 0.00 | 0.00 | 0.00 | 47 | 1006.5 |
| 20260504225810 | 25 | 182 | 16.1 | 17.7 | 0.00 | 0.00 | 0.00 | 47 | 1006.4 |
| 20260504225306 | 25 | 163 | 11.3 | 14.5 | 0.00 | 0.00 | 0.00 | 48 | 1006.5 |
| 20260504224804 | 25 | 214 | 20.9 | 29.0 | 0.00 | 0.00 | 0.00 | 47 | 1006.2 |
| 20260504224301 | 25 | 191 | 17.7 | 22.5 | 0.00 | 0.00 | 0.00 | 47 | 1006.4 |
| 20260504223757 | 25 | 168 | 25.7 | 29.0 | 0.00 | 0.00 | 0.00 | 48 | 1006.4 |
| 20260504223253 | 25 | 175 | 17.7 | 20.9 | 0.00 | 0.00 | 0.00 | 48 | 1006.7 |
| 20260504222750 | 25 | 177 | 20.9 | 25.7 | 0.00 | 0.00 | 0.00 | 47 | 1006.6 |
| 20260504222246 | 25 | 160 | 16.1 | 20.9 | 0.00 | 0.00 | 0.00 | 48 | 1006.7 |
| 20260504221744 | 25 | 195 | 19.3 | 22.5 | 0.00 | 0.00 | 0.00 | 48 | 1006.6 |
| 20260504221241 | 25 | 179 | 14.5 | 20.9 | 0.00 | 0.00 | 0.00 | 48 | 1006.7 |
| 20260504220737 | 25 | 147 | 11.3 | 14.5 | 0.00 | 0.00 | 0.00 | 47 | 1006.9 |
| 20260504220235 | 25 | 209 | 25.7 | 29.0 | 0.00 | 0.00 | 0.00 | 47 | 1006.7 |
| 20260504215732 | 25 | 118 | 22.5 | 27.4 | 0.00 | 0.00 | 0.00 | 47 | 1006.6 |
| 20260504215229 | 25 | 134 | 16.1 | 20.9 | 0.00 | 0.00 | 0.00 | 47 | 1006.8 |
| 20260504214724 | 25 | 179 | 22.5 | 32.2 | 0.00 | 0.00 | 0.00 | 47 | 1006.8 |
| 20260504214216 | 25 | 157 | 16.1 | 17.7 | 0.00 | 0.00 | 0.00 | 48 | 1006.8 |
| 20260504213712 | 26 | 120 | 25.7 | 35.4 | 0.00 | 0.00 | 0.00 | 46 | 1006.8 |
| 20260504213209 | 25 | 188 | 20.9 | 25.7 | 0.00 | 0.00 | 0.00 | 46 | 1006.7 |
| 20260504212706 | 26 | 135 | 17.7 | 22.5 | 0.00 | 0.00 | 0.00 | 48 | 1006.9 |
| 20260504212203 | 25 | 160 | 27.4 | 32.2 | 0.00 | 0.00 | 0.00 | 46 | 1006.9 |
| 20260504211700 | 26 | 172 | 22.5 | 27.4 | 0.00 | 0.00 | 0.00 | 47 | 1006.9 |
| 20260504211156 | 25 | 190 | 27.4 | 35.4 | 0.00 | 0.00 | 0.00 | 46 | 1007.1 |
| 20260504210654 | 26 | 179 | 17.7 | 17.7 | 0.00 | 0.00 | 0.00 | 46 | 1007.0 |
| 20260504210150 | 25 | 119 | 9.7 | 11.3 | 0.00 | 0.00 | 0.00 | 46 | 1007.0 |
| 20260504205648 | 26 | 171 | 16.1 | 20.9 | 0.00 | 0.00 | 0.00 | 45 | 1007.0 |
| 20260504205144 | 25 | 192 | 20.9 | 25.7 | 0.00 | 0.00 | 0.00 | 45 | 1007.2 |
| 20260504204643 | 26 | 166 | 14.5 | 16.1 | 0.00 | 0.00 | 0.00 | 47 | 1007.3 |
| 20260504204142 | 26 | 151 | 22.5 | 35.4 | 0.00 | 0.00 | 0.00 | 45 | 1007.3 |
| 20260504203640 | 26 | 136 | 14.5 | 20.9 | 0.00 | 0.00 | 0.00 | 47 | 1007.3 |
| 20260504203137 | 25 | 190 | 19.3 | 22.5 | 0.00 | 0.00 | 0.00 | 46 | 1007.4 |
| 20260504202632 | 26 | 128 | 19.3 | 33.8 | 0.00 | 0.00 | 0.00 | 45 | 1007.5 |
| 20260504202129 | 26 | 180 | 22.5 | 29.0 | 0.00 | 0.00 | 0.00 | 45 | 1007.4 |
| 20260504201625 | 26 | 183 | 22.5 | 25.7 | 0.00 | 0.00 | 0.00 | 46 | 1007.5 |
| 20260504201124 | 25 | 177 | 19.3 | 25.7 | 0.00 | 0.00 | 0.00 | 45 | 1007.6 |
| 20260504200620 | 26 | 114 | 17.7 | 24.1 | 0.00 | 0.00 | 0.00 | 45 | 1007.5 |
| 20260504200117 | 26 | 195 | 19.3 | 24.1 | 0.00 | 0.00 | 0.00 | 46 | 1007.8 |
| 20260504195613 | 26 | 141 | 22.5 | 25.7 | 0.00 | 0.00 | 0.00 | 44 | 1007.5 |
| 20260504195109 | 26 | 113 | 11.3 | 12.9 | 0.00 | 0.00 | 0.00 | 45 | 1007.9 |
| 20260504194606 | 26 | 152 | 24.1 | 29.0 | 0.00 | 0.00 | 0.00 | 44 | 1007.6 |
| 20260504194102 | 25 | 144 | 32.2 | 40.2 | 0.00 | 0.00 | 0.00 | 45 | 1007.5 |
| 20260504193558 | 25 | 179 | 19.3 | 25.7 | 0.00 | 0.00 | 0.00 | 46 | 1007.8 |
| 20260504193057 | 25 | 184 | 25.7 | 32.2 | 0.00 | 0.00 | 0.00 | 46 | 1007.7 |
| 20260504192555 | 25 | 104 | 19.3 | 22.5 | 0.00 | 0.00 | 0.00 | 46 | 1007.7 |
| 20260504192052 | 25 | 148 | 19.3 | 24.1 | 0.00 | 0.00 | 0.00 | 47 | 1008.1 |
| 20260504191550 | 25 | 139 | 16.1 | 17.7 | 0.00 | 0.00 | 0.00 | 46 | 1008.2 |
| 20260504191046 | 25 | 166 | 27.4 | 35.4 | 0.00 | 0.00 | 0.00 | 46 | 1008.3 |
| 20260504190543 | 25 | 170 | 19.3 | 24.1 | 0.00 | 0.00 | 0.00 | 46 | 1008.1 |
| 20260504190039 | 26 | 189 | 20.9 | 24.1 | 0.00 | 0.00 | 0.00 | 48 | 1008.2 |
| 20260504185536 | 25 | 148 | 20.9 | 24.1 | 0.00 | 0.00 | 0.00 | 45 | 1008.1 |
| 20260504185032 | 25 | 143 | 25.7 | 29.0 | 0.00 | 0.00 | 0.00 | 48 | 1008.2 |
| 20260504184528 | 25 | 175 | 22.5 | 25.7 | 0.00 | 0.00 | 0.00 | 46 | 1008.2 |
| 20260504184023 | 25 | 135 | 29.0 | 35.4 | 0.00 | 0.00 | 0.00 | 47 | 1008.3 |
| 20260504183521 | 25 | 197 | 14.5 | 22.5 | 0.00 | 0.00 | 0.00 | 46 | 1008.2 |
| 20260504183019 | 25 | 186 | 14.5 | 16.1 | 0.00 | 0.00 | 0.00 | 47 | 1008.2 |
| 20260504182515 | 25 | 43 | 17.7 | 24.1 | 0.00 | 0.00 | 0.00 | 47 | 1008.4 |
| 20260504182013 | 25 | 162 | 29.0 | 37.0 | 0.00 | 0.00 | 0.00 | 47 | 1008.2 |
| 20260504181510 | 25 | 149 | 17.7 | 27.4 | 0.00 | 0.00 | 0.00 | 48 | 1008.3 |
| 20260504181009 | 25 | 104 | 17.7 | 24.1 | 0.00 | 0.00 | 0.00 | 46 | 1008.4 |
| 20260504180507 | 25 | 172 | 16.1 | 17.7 | 0.00 | 0.00 | 0.00 | 49 | 1008.5 |
| 20260504180005 | 25 | 209 | 16.1 | 17.7 | 0.00 | 0.00 | 0.00 | 50 | 1008.4 |
| 20260504175502 | 24 | 173 | 12.9 | 16.1 | 0.00 | 0.00 | 0.00 | 49 | 1008.4 |
| 20260504174959 | 25 | 187 | 17.7 | 24.1 | 0.00 | 0.00 | 0.00 | 47 | 1008.5 |
| 20260504174456 | 25 | 145 | 19.3 | 22.5 | 0.00 | 0.00 | 0.00 | 48 | 1008.3 |
| 20260504173954 | 24 | 174 | 27.4 | 33.8 | 0.00 | 0.00 | 0.00 | 48 | 1008.4 |
| 20260504173450 | 24 | 222 | 17.7 | 22.5 | 0.00 | 0.00 | 0.00 | 48 | 1008.5 |
| 20260504172947 | 23 | 142 | 24.1 | 27.4 | 0.00 | 0.00 | 0.00 | 48 | 1008.6 |
| 20260504172443 | 24 | 176 | 20.9 | 25.7 | 0.00 | 0.00 | 0.00 | 49 | 1008.6 |
| 20260504171940 | 24 | 132 | 12.9 | 14.5 | 0.00 | 0.00 | 0.00 | 48 | 1008.9 |
| 20260504171437 | 24 | 140 | 11.3 | 14.5 | 0.00 | 0.00 | 0.00 | 49 | 1008.7 |
| 20260504170934 | 23 | 144 | 20.9 | 27.4 | 0.00 | 0.00 | 0.00 | 50 | 1008.7 |
| 20260504170430 | 23 | 192 | 14.5 | 17.7 | 0.00 | 0.00 | 0.00 | 51 | 1008.6 |
| 20260504160349 | 22 | 119 | 17.7 | 22.5 | 0.00 | 0.00 | 0.00 | 55 | 1009.8 |
| 20260504150814 | 20 | 187 | 19.3 | 22.5 | 0.00 | 0.00 | 0.00 | 58 | 1009.9 |
| 20260504150311 | 20 | 192 | 29.0 | 35.4 | 0.00 | 0.00 | 0.00 | 58 | 1010.2 |
| 20260504141241 | 18 | 188 | 16.1 | 20.9 | 0.00 | 0.00 | 0.00 | 67 | 1010.5 |
| 20260504140737 | 17 | 143 | 14.5 | 17.7 | 0.00 | 0.00 | 0.00 | 67 | 1010.8 |
| 20260504140233 | 17 | 177 | 14.5 | 16.1 | 0.00 | 0.00 | 0.00 | 67 | 1010.4 |
| 20260504130702 | 15 | 167 | 12.9 | 14.5 | 0.00 | 0.00 | 0.00 | 74 | 1010.8 |
| 20260504130157 | 15 | 194 | 8.0 | 11.3 | 0.00 | 0.00 | 0.00 | 75 | 1010.9 |
| 20260504120122 | 13 | 141 | 9.7 | 12.9 | 0.00 | 0.00 | 0.00 | 76 | 1010.7 |
| 20260504110549 | 12 | 197 | 8.0 | 9.7 | 0.00 | 0.00 | 0.00 | 82 | 1010.7 |
| 20260504100511 | 13 | 194 | 6.4 | 8.0 | 0.00 | 0.00 | 0.00 | 79 | 1011.1 |
| 20260504081904 | 13 | 200 | 6.4 | 8.0 | 0.00 | 0.00 | 0.00 | 82 | 1011.3 |
| 20260504081401 | 13 | 184 | 6.4 | 8.0 | 0.00 | 0.00 | 0.00 | 82 | 1011.4 |
| 20260504080856 | 13 | 201 | 8.0 | 8.0 | 0.00 | 0.00 | 0.00 | 81 | 1011.2 |
| 20260504080354 | 13 | 193 | 6.4 | 8.0 | 0.00 | 0.00 | 0.00 | 81 | 1011.3 |